Project,Study,Ord_Occ,Event_Num,Cast_ID,Date_Time_UTC,Date_Time_PST,Lat_Dec,Lon_Dec,Sta_ID,Line,Sta,Depth,Pressure,PrQ,Temp1,Temp1Q,Temp2,Temp2Q,TempAve,Salt1,Salt1Q,Salt1_Corr,Salt2,Salt2Q,Salt2_Corr,SaltAve_Corr,Ox1,Ox1Q,Ox1_CruiseCorr,Ox1_StaCorr,Ox2,Ox2Q,Ox2_CruiseCorr,Ox2_StaCorr,OxAve_StaCorr,Ox1uM,Ox1uM_CruiseCorr,Ox1uM_StaCorr,Ox2uM,Ox2uM_CruiseCorr,Ox2uM_StaCorr,OxAveuM_StaCorr,FluorV,FluorQ,EstChl_CruiseCorr,EstChl_StaCorr,ISUSV,ISUSQ,EstNO3_CruiseCorr,EstNO3_StaCorr,SigThetaTS1,SigThetaTS1Q,SigThetaTS2,SigThetaTS2Q,BAT,XMiss,TransQ,pH,pHQ,SPAR,SPARQ,PAR,PARQ,PoT1,PoT2,DynHt,SVA,OxSat1,OxSat2,BTL_Depth,BTL_Temp,SaltB,OxB,OxBuM,Chl-a,Phaeo,NO3,NO2,NH4,PO4,SIL
CalCOFI,2105SH,018,,2105_018d,08-May-2021 03:38:24,07-May-2021 19:38:24,32.41277,-119.96362,090.0 060.0,090.0,060.0,3.000,3.021,,13.1248,,13.1254,,13.1251,33.5901,,33.5913,33.5901,,33.5920,33.5917,5.8623,,6.1969,6.1166,5.9227,,6.1941,6.5222,6.3194,255.354,269.4459,275.1568,257.985,280.9115,289.2616,282.2092,0.2666,,1.6439,1.5666,2.6071,,4.4445,,25.2760,,25.2759,,,,,,,,,,,13.1244,13.1250,0.0005,268.594,98.288,99.301,,,,,,,,,,,,
CalCOFI,2105SH,018,,2105_018d,08-May-2021 03:38:31,07-May-2021 19:38:31,32.41277,-119.96365,090.0 060.0,090.0,060.0,4.000,4.028,,13.1258,,13.1262,,13.1260,33.5901,,33.5913,33.5897,,33.5916,33.5915,5.8412,,6.1748,6.0948,5.9194,,6.1907,6.5187,6.3068,254.436,268.4862,274.1689,257.844,279.9201,289.1091,281.6390,0.2674,,1.6490,1.5712,2.6075,,4.4445,,25.2758,,25.2754,,,,,,,,,,,13.1253,13.1257,0.0055,268.637,97.936,99.248,4,13.119,33.5856,6.156,268.15,1.636,0.575,5.96,0.269,0.17,0.70,2.96
CalCOFI,2105SH,018,,2105_018d,08-May-2021 03:38:35,07-May-2021 19:38:35,32.41274,-119.96366,090.0 060.0,090.0,060.0,5.000,5.035,,13.1261,,13.1261,,13.1261,33.5902,,33.5914,33.5905,,33.5924,33.5919,5.8461,,6.1800,6.0999,5.9201,,6.1914,6.5195,6.3097,254.651,268.7110,274.4003,257.874,280.1523,289.1415,281.7709,0.3350,,2.0688,1.9570,2.6077,,4.4445,,25.2759,,25.2761,,,,,,,,,,,13.1254,13.1254,0.0093,268.657,98.019,99.260,,,,,,,,,,,,
CalCOFI,2105SH,018,,2105_018d,08-May-2021 03:38:36,07-May-2021 19:38:36,32.41274,-119.96366,090.0 060.0,090.0,060.0,6.000,6.042,,13.1263,,13.1272,,13.1268,33.5903,,33.5915,33.5905,,33.5924,33.5920,5.8761,,6.2113,6.1309,5.9204,,6.1918,6.5198,6.3254,255.958,270.0773,275.8068,257.889,281.5639,289.1577,282.4823,0.3017,,1.8647,1.7670,2.6076,,4.4445,,25.2759,,25.2759,,,,,,,,,,,13.1255,13.1263,0.0119,268.680,98.523,99.268,,,,,,,,,,,,
CalCOFI,2105SH,018,,2105_018d,08-May-2021 03:38:37,07-May-2021 19:38:37,32.41274,-119.96366,090.0 060.0,090.0,060.0,7.000,7.049,,13.1263,,13.1267,,13.1265,33.5902,,33.5914,33.5904,,33.5923,33.5919,5.8575,,6.1919,6.1117,5.9210,,6.1924,6.5204,6.3161,255.149,269.2316,274.9362,257.914,280.6901,289.1848,282.0605,0.2746,,1.6947,1.6123,2.6075,,4.4445,,25.2759,,25.2760,,,,,,,,,,,13.1253,13.1258,0.0146,268.711,98.212,99.277,,,,,,,,,,,,
CalCOFI,2105SH,018,,2105_018d,08-May-2021 03:38:37,07-May-2021 19:38:37,32.41274,-119.96367,090.0 060.0,090.0,060.0,8.000,8.057,,13.1255,,13.1259,,13.1257,33.5903,,33.5915,33.5905,,33.5924,33.5920,5.8290,,6.1621,6.0822,5.9236,,6.1951,6.5231,6.3027,253.907,267.9332,273.5996,258.027,279.3488,289.3070,281.4533,0.2900,,1.7918,1.7002,2.6075,,4.4445,,25.2762,,25.2762,,,,,,,,,,,13.1245,13.1248,0.0173,268.713,97.732,99.319,,,,,,,,,,,,
CalCOFI,2105SH,018,,2105_018d,08-May-2021 03:38:38,07-May-2021 19:38:38,32.41274,-119.96368,090.0 060.0,090.0,060.0,9.000,9.064,,13.1273,,13.1279,,13.1276,33.5900,,33.5912,33.5904,,33.5923,33.5918,5.8549,,6.1892,6.1090,5.9294,,6.2011,6.5292,6.3191,255.032,269.1093,274.8103,258.277,280.5638,289.5774,282.1939,0.3054,,1.8876,1.7881,2.6074,,4.4445,,25.2756,,25.2758,,,,,,,,,,,13.1260,13.1267,0.0200,268.797,98.169,99.419,,,,,,,,,,,,
CalCOFI,2105SH,018,,2105_018d,08-May-2021 03:38:40,07-May-2021 19:38:40,32.41273,-119.96368,090.0 060.0,090.0,060.0,10.000,10.071,,13.1283,,13.1286,,13.1285,33.5901,,33.5913,33.5902,,33.5921,33.5917,5.8565,,6.1908,6.1107,5.9268,,6.1984,6.5265,6.3186,255.102,269.1824,274.8856,258.165,280.6394,289.4562,282.1709,0.3256,,2.0117,1.9034,2.6073,,4.4445,,25.2755,,25.2755,,,,,,,,,,,13.1269,13.1273,0.0227,268.832,98.197,99.377,10,13.118,,,267.84,1.681,0.622,5.91,0.254,0.17,0.70,2.95
CalCOFI,2105SH,018,,2105_018d,08-May-2021 03:38:41,07-May-2021 19:38:41,32.41272,-119.96368,090.0 060.0,090.0,060.0,11.000,11.078,,13.1285,,13.1293,,13.1289,33.5900,,33.5912,33.5904,,33.5923,33.5918,5.8558,,6.1901,6.1099,5.9221,,6.1935,6.5216,6.3158,255.071,269.1500,274.8522,257.961,280.6059,289.2356,282.0439,0.2633,,1.6228,1.5478,2.6072,,4.4445,,25.2754,,25.2755,,,,,,,,,,,13.1270,13.1278,0.0254,268.866,98.186,99.300,,,,,,,,,,,,
CalCOFI,2105SH,018,,2105_018d,08-May-2021 03:38:42,07-May-2021 19:38:42,32.41272,-119.96368,090.0 060.0,090.0,060.0,12.000,12.085,,13.1289,,13.1294,,13.1292,33.5902,,33.5914,33.5903,,33.5922,33.5918,5.8853,,6.2209,6.1404,5.9226,,6.1940,6.5221,6.3313,256.358,270.4955,276.2372,257.984,281.9959,289.2605,282.7489,0.2657,,1.6381,1.5615,2.6071,,4.4445,,25.2755,,25.2755,,,,,,,,,,,13.1273,13.1277,0.0281,268.886,98.682,99.309,,,,,,,,,,,,
CalCOFI,2105SH,018,,2105_018d,08-May-2021 03:38:43,07-May-2021 19:38:43,32.41272,-119.96368,090.0 060.0,090.0,060.0,13.000,13.092,,13.1283,,13.1286,,13.1285,33.5902,,33.5914,33.5904,,33.5923,33.5919,5.8741,,6.2092,6.1288,5.9255,,6.1970,6.5251,6.3270,255.869,269.9843,275.7110,258.110,281.4677,289.3968,282.5539,0.2718,,1.6770,1.5963,2.6070,,4.4445,,25.2757,,25.2757,,,,,,,,,,,13.1265,13.1268,0.0308,268.897,98.493,99.356,,,,,,,,,,,,
CalCOFI,2105SH,018,,2105_018d,08-May-2021 03:38:44,07-May-2021 19:38:44,32.41272,-119.96368,090.0 060.0,090.0,060.0,14.000,14.099,,13.1292,,13.1298,,13.1295,33.5901,,33.5913,33.5903,,33.5922,33.5918,5.8499,,6.1839,6.1038,5.9248,,6.1963,6.5244,6.3141,254.816,268.8834,274.5778,258.076,280.3305,289.3600,281.9689,0.2989,,1.8473,1.7510,2.6070,,4.4445,,25.2754,,25.2755,,,,,,,,,,,13.1273,13.1279,0.0335,268.948,98.089,99.345,,,,,,,,,,,,
CalCOFI,2105SH,018,,2105_018d,08-May-2021 03:38:45,07-May-2021 19:38:45,32.41272,-119.96370,090.0 060.0,090.0,060.0,15.000,15.106,,13.1297,,13.1303,,13.1300,33.5902,,33.5914,33.5903,,33.5922,33.5918,5.8487,,6.1827,6.1026,5.9229,,6.1943,6.5224,6.3125,254.763,268.8280,274.5208,257.997,280.2732,289.2745,281.8977,0.3018,,1.8653,1.7675,2.6068,,4.4445,,25.2755,,25.2754,,,,,,,,,,,13.1277,13.1282,0.0362,268.974,98.070,99.316,,,,,,,,,,,,
CalCOFI,2105SH,018,,2105_018d,08-May-2021 03:38:47,07-May-2021 19:38:47,32.41272,-119.96370,090.0 060.0,090.0,060.0,16.000,16.113,,13.1299,,13.1304,,13.1302,33.5902,,33.5914,33.5902,,33.5921,33.5918,5.8555,,6.1898,6.1096,5.9265,,6.1981,6.5262,6.3179,255.062,269.1406,274.8426,258.153,280.5962,289.4433,282.1430,0.2881,,1.7799,1.6893,2.6066,,4.4445,,25.2754,,25.2753,,,,,,,,,,,13.1277,13.1282,0.0389,269.005,98.185,99.376,,,,,,,,,,,,
CalCOFI,2105SH,018,,2105_018d,08-May-2021 03:38:49,07-May-2021 19:38:49,32.41270,-119.96370,090.0 060.0,090.0,060.0,17.000,17.121,,13.1298,,13.1303,,13.1301,33.5901,,33.5913,33.5902,,33.5921,33.5917,5.8624,,6.1970,6.1168,5.9230,,6.1944,6.5225,6.3197,255.361,269.4532,275.1643,258.002,280.9191,289.2799,282.2221,0.2983,,1.8436,1.7476,2.6064,,4.4445,,25.2754,,25.2753,,,,,,,,,,,13.1275,13.1280,0.0417,269.034,98.300,99.318,,,,,,,,,,,,
CalCOFI,2105SH,018,,2105_018d,08-May-2021 03:38:51,07-May-2021 19:38:51,32.41270,-119.96372,090.0 060.0,090.0,060.0,18.000,18.128,,13.1298,,13.1301,,13.1300,33.5901,,33.5913,33.5903,,33.5922,33.5918,5.8629,,6.1975,6.1173,5.9250,,6.1965,6.5246,6.3210,255.382,269.4751,275.1869,258.089,280.9418,289.3741,282.2805,0.2640,,1.6273,1.5518,2.6061,,4.4445,,25.2754,,25.2755,,,,,,,,,,,13.1274,13.1276,0.0444,269.059,98.308,99.351,,,,,,,,,,,,
CalCOFI,2105SH,018,,2105_018d,08-May-2021 03:38:53,07-May-2021 19:38:53,32.41269,-119.96373,090.0 060.0,090.0,060.0,19.000,19.135,,13.1297,,13.1302,,13.1300,33.5902,,33.5914,33.5904,,33.5923,33.5919,5.8305,,6.1636,6.0838,5.9233,,6.1948,6.5228,6.3033,253.972,268.0011,273.6696,258.011,279.4190,289.2897,281.4797,0.3054,,1.8876,1.7881,2.6057,,4.4445,,25.2755,,25.2756,,,,,,,,,,,13.1271,13.1276,0.0471,269.078,97.766,99.321,,,,,,,,,,,,
CalCOFI,2105SH,018,,2105_018d,08-May-2021 03:38:56,07-May-2021 19:38:56,32.41268,-119.96373,090.0 060.0,090.0,060.0,20.000,20.142,,13.1270,,13.1297,,13.1284,33.5906,,33.5918,33.5904,,33.5923,33.5921,5.8490,,6.1830,6.1029,5.9251,,6.1966,6.5247,6.3138,254.776,268.8416,274.5348,258.092,280.2873,289.3773,281.9561,0.2888,,1.7842,1.6933,2.6048,,4.4445,,25.2764,,25.2757,,,,,,,,,,,13.1243,13.1269,0.0498,269.021,98.070,99.351,,,,,,,,,,,,
CalCOFI,2105SH,018,,2105_018d,08-May-2021 03:38:59,07-May-2021 19:38:59,32.41268,-119.96374,090.0 060.0,090.0,060.0,21.000,21.149,,13.1171,,13.1254,,13.1213,33.5911,,33.5923,33.5903,,33.5922,33.5923,5.8200,,6.1527,6.0729,5.8950,,6.1654,6.4931,6.2830,253.513,267.5213,273.1756,256.779,278.9232,287.9573,280.5665,0.3184,,1.9677,1.8623,2.6030,,4.4445,,25.2788,,25.2765,,,,,,,,,,,13.1143,13.1226,0.0525,268.824,97.564,98.837,,,,,,,,,,,,
CalCOFI,2105SH,018,,2105_018d,08-May-2021 03:39:00,07-May-2021 19:39:00,32.41266,-119.96374,090.0 060.0,090.0,060.0,22.000,22.156,,13.1059,,13.1050,,13.1055,33.5918,,33.5930,33.5915,,33.5934,33.5932,5.7921,,6.1235,6.0441,5.8847,,6.1548,6.4823,6.2632,252.298,266.2511,271.8681,256.329,277.6110,287.4707,279.6694,0.3004,,1.8566,1.7595,2.6017,,4.4445,,25.2816,,25.2816,,,,,,,,,,,13.1028,13.1020,0.0552,268.581,97.075,98.624,,,,,,,,,,,,
CalCOFI,2105SH,018,,2105_018d,08-May-2021 03:39:03,07-May-2021 19:39:03,32.41266,-119.96374,090.0 060.0,090.0,060.0,23.000,23.163,,13.0790,,13.0871,,13.0831,33.5913,,33.5925,33.5908,,33.5927,33.5926,5.7909,,6.1222,6.0428,5.8672,,6.1366,6.4639,6.2534,252.244,266.1947,271.8100,255.570,277.5527,286.6498,279.2299,0.2943,,1.8186,1.7247,2.5941,,4.4445,,25.2866,,25.2846,,,,,,,,,,,13.0758,13.0839,0.0583,268.128,97.000,98.295,,,,,,,,,,,,
CalCOFI,2105SH,018,,2105_018d,08-May-2021 03:39:07,07-May-2021 19:39:07,32.41265,-119.96374,090.0 060.0,090.0,060.0,24.000,24.171,,13.0759,,13.0746,,13.0753,33.5921,,33.5933,33.5914,,33.5933,33.5933,5.6097,,5.9327,5.8555,5.6055,,5.8656,6.1893,6.0224,244.351,257.9433,263.3159,244.166,269.0283,274.3168,268.8164,0.3359,,2.0742,1.9621,2.5802,,4.4445,,25.2878,,25.2876,,,,,,,,,,,13.0727,13.0713,0.0616,268.039,93.960,93.886,,,,,,,,,,,,
CalCOFI,2105SH,018,,2105_018d,08-May-2021 03:39:07,07-May-2021 19:39:07,32.41264,-119.96374,090.0 060.0,090.0,060.0,25.000,25.178,,13.0808,,13.0785,,13.0797,33.5914,,33.5926,33.5924,,33.5943,33.5935,5.5408,,5.8607,5.7843,5.6032,,5.8632,6.1868,5.9856,241.348,254.8040,260.0843,244.069,265.7850,274.2119,267.1481,0.2991,,1.8486,1.7521,2.5760,,4.4445,,25.2864,,25.2876,,,,,,,,,,,13.0774,13.0751,0.0643,268.206,92.814,93.857,,,,,,,,,,,,
CalCOFI,2105SH,018,,2105_018d,08-May-2021 03:39:08,07-May-2021 19:39:08,32.41264,-119.96376,090.0 060.0,090.0,060.0,26.000,26.185,,12.8228,,12.8321,,12.8275,33.6167,,33.6179,33.5894,,33.5913,33.6046,5.6173,,5.9407,5.8634,5.7131,,5.9770,6.3022,6.0828,244.664,258.2705,263.6528,248.844,269.3663,279.3759,271.5144,0.3201,,1.9781,1.8720,2.5698,,4.4445,,25.3569,,25.3339,,,,,,,,,,,12.8193,12.8287,0.0670,261.516,93.607,95.206,,,,,,,,,,,,
CalCOFI,2105SH,018,,2105_018d,08-May-2021 03:39:12,07-May-2021 19:39:12,32.41264,-119.96377,090.0 060.0,090.0,060.0,27.000,27.192,,12.6533,,12.6418,,12.6476,33.6243,,33.6255,33.6313,,33.6332,33.6294,5.5495,,5.8698,5.7933,5.5923,,5.8519,6.1754,5.9844,241.703,255.1751,260.4663,243.564,266.1684,273.6657,267.0660,0.3358,,2.0736,1.9616,2.5287,,4.4445,,25.3961,,25.4038,,,,,,,,,,,12.6497,12.6382,0.0705,257.801,92.157,92.847,,,,,,,,,,,,
CalCOFI,2105SH,018,,2105_018d,08-May-2021 03:39:14,07-May-2021 19:39:14,32.41264,-119.96376,090.0 060.0,090.0,060.0,28.000,28.199,,12.6082,,12.6112,,12.6097,33.6908,,33.6920,33.6877,,33.6896,33.6908,5.2686,,5.5760,5.5030,5.3543,,5.6054,5.9256,5.7143,229.455,242.3711,247.2857,233.188,252.9405,262.4445,254.8651,0.3161,,1.9536,1.8491,2.4994,,4.4445,,25.4565,,25.4535,,,,,,,,,,,12.6045,12.6075,0.0737,252.092,87.451,88.877,,,,,,,,,,,,
CalCOFI,2105SH,018,,2105_018d,08-May-2021 03:39:15,07-May-2021 19:39:15,32.41263,-119.96377,090.0 060.0,090.0,060.0,29.000,29.207,,12.5271,,12.5281,,12.5276,33.7009,,33.7021,33.6854,,33.6873,33.6947,5.2862,,5.5944,5.5212,5.3602,,5.6115,5.9318,5.7265,230.214,243.1645,248.1024,233.441,253.7603,262.7181,255.4103,0.3069,,1.8969,1.7966,2.4809,,4.4445,,25.4801,,25.4678,,,,,,,,,,,12.5232,12.5242,0.0762,249.869,87.600,88.820,29,13.142,,,265.19,1.783,0.827,7.58,0.312,0.30,0.80,4.80
CalCOFI,2105SH,018,,2105_018d,08-May-2021 03:39:18,07-May-2021 19:39:18,32.41261,-119.96379,090.0 060.0,090.0,060.0,30.000,30.214,,12.3707,,12.3738,,12.3723,33.6672,,33.6684,33.6673,,33.6692,33.6688,5.2700,,5.5775,5.5044,4.9875,,5.2255,5.5406,5.5225,229.511,242.4296,247.3459,217.208,253.0010,245.1626,246.2543,0.2595,,1.5985,1.5261,2.4206,,4.4445,,25.4842,,25.4836,,,,,,,,,,,12.3667,12.3699,0.0787,249.492,87.030,82.369,,,,,,,,,,,,
CalCOFI,2105SH,018,,2105_018d,08-May-2021 03:39:20,07-May-2021 19:39:20,32.41260,-119.96378,090.0 060.0,090.0,060.0,31.000,31.221,,12.2934,,12.3133,,12.3034,33.6574,,33.6586,33.6779,,33.6798,33.6692,5.3060,,5.6151,5.5416,4.7985,,5.0297,5.3422,5.4419,231.077,244.0667,249.0312,208.972,254.6923,236.2557,242.6435,0.2470,,1.5180,1.4548,2.3699,,4.4445,,25.4914,,25.5035,,,,,,,,,,,12.2894,12.3092,0.0812,248.833,87.478,79.154,,,,,,,,,,,,
CalCOFI,2105SH,018,,2105_018d,08-May-2021 03:39:22,07-May-2021 19:39:22,32.41260,-119.96378,090.0 060.0,090.0,060.0,32.000,32.228,,12.2299,,12.2620,,12.2460,33.6420,,33.6432,33.7113,,33.7132,33.6782,5.2821,,5.5901,5.5169,4.8018,,5.0331,5.3457,5.4313,230.036,242.9784,247.9109,209.106,253.5680,236.4006,242.1558,0.2344,,1.4361,1.3829,2.3349,,4.4445,,25.4916,,25.5392,,,,,,,,,,,12.2257,12.2579,0.0837,248.832,86.960,79.140,,,,,,,,,,,,
CalCOFI,2105SH,018,,2105_018d,08-May-2021 03:39:23,07-May-2021 19:39:23,32.41258,-119.96379,090.0 060.0,090.0,060.0,33.000,33.235,,12.2732,,12.2613,,12.2673,33.6526,,33.6538,33.6984,,33.7003,33.6771,5.2826,,5.5906,5.5174,4.8156,,5.0474,5.3602,5.4388,230.058,243.0014,247.9346,209.711,253.5918,237.0549,242.4948,0.2524,,1.5529,1.4856,2.3006,,4.4445,,25.4916,,25.5294,,,,,,,,,,,12.2689,12.2570,0.0862,248.866,87.053,79.360,,,,,,,,,,,,
CalCOFI,2105SH,018,,2105_018d,08-May-2021 03:39:26,07-May-2021 19:39:26,32.41257,-119.96380,090.0 060.0,090.0,060.0,34.000,34.243,,12.2146,,12.2280,,12.2213,33.6504,,33.6516,33.7204,,33.7223,33.6870,5.2660,,5.5733,5.5003,4.7750,,5.0053,5.3176,5.4090,229.331,242.2414,247.1522,207.936,252.8066,235.1353,241.1438,0.2195,,1.3383,1.2978,2.2492,,4.4445,,25.5011,,25.5529,,,,,,,,,,,12.2101,12.2235,0.0887,247.984,86.672,78.646,,,,,,,,,,,,
CalCOFI,2105SH,018,,2105_018d,08-May-2021 03:39:29,07-May-2021 19:39:29,32.41256,-119.96380,090.0 060.0,090.0,060.0,35.000,35.250,,12.1822,,12.1869,,12.1846,33.6497,,33.6509,33.7174,,33.7193,33.6851,5.1734,,5.4764,5.4046,4.7818,,5.0124,5.3247,5.3647,225.295,238.0222,242.8089,208.232,248.4477,235.4554,239.1322,0.2117,,1.2866,1.2533,2.1949,,4.4445,,25.5068,,25.5584,,,,,,,,,,,12.1777,12.1824,0.0912,247.469,85.089,78.689,,,,,,,,,,,,
CalCOFI,2105SH,018,,2105_018d,08-May-2021 03:39:30,07-May-2021 19:39:30,32.41256,-119.96382,090.0 060.0,090.0,060.0,36.000,36.257,,12.1562,,12.1624,,12.1593,33.6519,,33.6531,33.7330,,33.7349,33.6940,5.1987,,5.5029,5.4307,4.7361,,4.9651,5.2767,5.3537,226.396,239.1732,243.9937,206.241,249.6368,233.3022,238.6480,0.2225,,1.3581,1.3149,2.1850,,4.4445,,25.5134,,25.5752,,,,,,,,,,,12.1515,12.1578,0.0937,246.856,85.459,77.906,,,,,,,,,,,,
CalCOFI,2105SH,018,,2105_018d,08-May-2021 03:39:31,07-May-2021 19:39:31,32.41256,-119.96382,090.0 060.0,090.0,060.0,37.000,37.264,,12.1316,,12.1339,,12.1328,33.6498,,33.6510,33.7457,,33.7476,33.6993,5.2091,,5.5138,5.4415,4.6777,,4.9046,5.2154,5.3285,226.851,239.6488,244.4834,203.692,250.1282,230.5455,237.5145,0.1901,,1.1421,1.1300,2.1746,,4.4445,,25.5165,,25.5905,,,,,,,,,,,12.1268,12.1291,0.0962,246.586,85.586,76.905,,,,,,,,,,,,
CalCOFI,2105SH,018,,2105_018d,08-May-2021 03:39:33,07-May-2021 19:39:33,32.41255,-119.96384,090.0 060.0,090.0,060.0,38.000,38.271,,12.1356,,12.1354,,12.1355,33.6500,,33.6512,33.7155,,33.7174,33.6843,5.2105,,5.5152,5.4429,4.5592,,4.7818,5.0911,5.2670,226.912,239.7126,244.5490,198.540,250.1941,224.9738,234.7614,0.1961,,1.1825,1.1643,2.1501,,4.4445,,25.5159,,25.5668,,,,,,,,,,,12.1307,12.1305,0.0987,246.674,85.617,74.946,,,,,,,,,,,,
CalCOFI,2105SH,018,,2105_018d,08-May-2021 03:39:37,07-May-2021 19:39:37,32.41254,-119.96384,090.0 060.0,090.0,060.0,39.000,39.279,,12.1538,,12.1438,,12.1488,33.6544,,33.6556,33.6903,,33.6922,33.6739,5.2250,,5.5304,5.4579,4.3536,,4.5689,4.8753,5.1666,227.544,240.3733,245.2291,189.588,250.8767,215.2925,230.2608,0.1876,,1.1253,1.1158,2.1108,,4.4445,,25.5159,,25.5456,,,,,,,,,,,12.1487,12.1387,0.1013,246.700,85.890,71.566,,,,,,,,,,,,
CalCOFI,2105SH,018,,2105_018d,08-May-2021 03:39:37,07-May-2021 19:39:37,32.41253,-119.96384,090.0 060.0,090.0,060.0,40.000,40.286,,12.1864,,12.1699,,12.1782,33.6637,,33.6649,33.6725,,33.6744,33.6697,5.2381,,5.5441,5.4714,4.3089,,4.5226,4.8283,5.1499,228.112,240.9671,245.8404,187.648,251.4901,213.1945,229.5175,0.1783,,1.0622,1.0627,2.1030,,4.4445,,25.5169,,25.5269,,,,,,,,,,,12.1811,12.1647,0.1038,246.631,86.168,70.863,,,,,,,,,,,,
CalCOFI,2105SH,018,,2105_018d,08-May-2021 03:39:38,07-May-2021 19:39:38,32.41252,-119.96384,090.0 060.0,090.0,060.0,41.000,41.293,,12.2052,,12.1982,,12.2017,33.6699,,33.6711,33.6579,,33.6598,33.6655,5.2281,,5.5336,5.4611,4.2842,,4.4970,4.8024,5.1318,227.677,240.5123,245.3723,186.573,251.0203,212.0319,228.7021,0.1970,,1.1885,1.1694,2.0948,,4.4445,,25.5182,,25.5103,,,,,,,,,,,12.1998,12.1928,0.1063,246.534,86.041,70.491,,,,,,,,,,,,
CalCOFI,2105SH,018,,2105_018d,08-May-2021 03:39:41,07-May-2021 19:39:41,32.41252,-119.96387,090.0 060.0,090.0,060.0,42.000,42.300,,12.2139,,12.2167,,12.2153,33.6730,,33.6742,33.6883,,33.6902,33.6822,5.1890,,5.4928,5.4207,4.3506,,4.5658,4.8721,5.1464,225.975,238.7331,243.5407,189.459,249.1821,215.1530,229.3469,0.1860,,1.1145,1.1066,2.0671,,4.4445,,25.5190,,25.5303,,,,,,,,,,,12.2084,12.2112,0.1094,246.488,85.415,71.625,,,,,,,,,,,,
CalCOFI,2105SH,018,,2105_018d,08-May-2021 03:39:44,07-May-2021 19:39:44,32.41251,-119.96386,090.0 060.0,090.0,060.0,43.000,43.308,,12.2099,,12.2150,,12.2125,33.6763,,33.6775,33.6826,,33.6845,33.6810,5.1460,,5.4478,5.3762,4.3557,,4.5710,4.8775,5.1269,224.101,236.7740,241.5240,189.682,247.1582,215.3942,228.4591,0.1944,,1.1711,1.1546,2.0428,,4.4445,,25.5223,,25.5263,,,,,,,,,,,12.2043,12.2094,0.1125,246.196,84.702,71.704,,,,,,,,,,,,
CalCOFI,2105SH,018,,2105_018d,08-May-2021 03:39:44,07-May-2021 19:39:44,32.41250,-119.96387,090.0 060.0,090.0,060.0,44.000,44.315,,12.1647,,12.1702,,12.1675,33.6734,,33.6746,33.7330,,33.7349,33.7048,5.1357,,5.4370,5.3656,4.3458,,4.5608,4.8671,5.1164,223.650,236.3025,241.0386,189.244,246.6711,214.9205,227.9796,0.1760,,1.0466,1.0496,2.0373,,4.4445,,25.5287,,25.5739,,,,,,,,,,,12.1590,12.1644,0.1150,245.616,84.451,71.497,,,,,,,,,,,,
CalCOFI,2105SH,018,,2105_018d,08-May-2021 03:39:45,07-May-2021 19:39:45,32.41250,-119.96389,090.0 060.0,090.0,060.0,45.000,45.322,,12.0858,,12.0905,,12.0882,33.6668,,33.6680,33.7635,,33.7654,33.7167,5.1226,,5.4233,5.3521,4.3530,,4.5682,4.8746,5.1134,223.079,235.7056,240.4241,189.550,246.0544,215.2514,227.8378,0.1750,,1.0398,1.0439,2.0301,,4.4445,,25.5385,,25.6128,,,,,,,,,,,12.0800,12.0847,0.1175,244.699,84.093,71.510,,,,,,,,,,,,
CalCOFI,2105SH,018,,2105_018d,08-May-2021 03:39:48,07-May-2021 19:39:48,32.41250,-119.96390,090.0 060.0,090.0,060.0,46.000,46.330,,12.0708,,12.0693,,12.0701,33.6698,,33.6710,33.7032,,33.7051,33.6881,5.0456,,5.3428,5.2725,4.3598,,4.5753,4.8818,5.0772,219.723,232.1972,236.8126,189.853,242.4300,215.5791,226.1959,0.1257,,0.6980,0.7625,2.0152,,4.4445,,25.5438,,25.5699,,,,,,,,,,,12.0648,12.0634,0.1199,244.222,82.804,71.562,,,,,,,,,,,,
CalCOFI,2105SH,018,,2105_018d,08-May-2021 03:39:49,07-May-2021 19:39:49,32.41248,-119.96390,090.0 060.0,090.0,060.0,47.000,47.337,,12.0304,,12.0678,,12.0491,33.6772,,33.6784,33.7114,,33.7133,33.6959,4.9787,,5.2728,5.2033,4.2763,,4.4888,4.7941,4.9987,216.807,229.1488,233.6745,186.217,239.2807,211.6469,222.6607,0.1435,,0.8227,0.8641,2.0089,,4.4445,,25.5572,,25.5767,,,,,,,,,,,12.0243,12.0618,0.1224,242.972,81.641,70.194,,,,,,,,,,,,
CalCOFI,2105SH,018,,2105_018d,08-May-2021 03:39:51,07-May-2021 19:39:51,32.41248,-119.96392,090.0 060.0,090.0,060.0,48.000,48.344,,11.8784,,11.9119,,11.8952,33.6786,,33.6798,33.7599,,33.7618,33.7208,4.9623,,5.2557,5.1864,4.2046,,4.4145,4.7189,4.9527,216.086,228.3951,232.8987,183.080,238.5020,208.2544,220.5766,0.1164,,0.6322,0.7094,1.9978,,4.4445,,25.5869,,25.6437,,,,,,,,,,,11.8722,11.9057,0.1248,240.162,81.113,68.812,,,,,,,,,,,,
CalCOFI,2105SH,018,,2105_018d,08-May-2021 03:39:54,07-May-2021 19:39:54,32.41248,-119.96394,090.0 060.0,090.0,060.0,49.000,49.351,,11.8369,,11.8410,,11.8390,33.6762,,33.6774,33.7421,,33.7440,33.7107,4.9533,,5.2463,5.1771,4.1087,,4.3152,4.6182,4.8977,215.696,227.9874,232.4789,178.908,238.0808,203.7425,218.1107,0.1047,,0.5489,0.6426,1.9794,,4.4445,,25.5928,,25.6432,,,,,,,,,,,11.8306,11.8348,0.1272,239.621,80.895,67.135,49,12.239,,,240.08,1.286,0.724,10.73,0.388,0.70,1.05,8.79
CalCOFI,2105SH,018,,2105_018d,08-May-2021 03:39:56,07-May-2021 19:39:56,32.41248,-119.96394,090.0 060.0,090.0,060.0,50.000,50.359,,11.8283,,11.8317,,11.8300,33.6752,,33.6764,33.7353,,33.7372,33.7068,4.9527,,5.2456,5.1764,4.0521,,4.2566,4.5588,4.8676,215.667,227.9571,232.4477,176.445,238.0495,201.0788,216.7633,0.1184,,0.6464,0.7208,1.9692,,4.4445,,25.5937,,25.6397,,,,,,,,,,,11.8219,11.8254,0.1296,239.563,80.869,66.195,,,,,,,,,,,,
CalCOFI,2105SH,018,,2105_018d,08-May-2021 03:39:57,07-May-2021 19:39:57,32.41246,-119.96394,090.0 060.0,090.0,060.0,51.000,51.366,,11.8268,,11.8267,,11.8268,33.6754,,33.6766,33.7301,,33.7320,33.7043,4.9435,,5.2360,5.1669,4.0615,,4.2663,4.5687,4.8678,215.267,227.5389,232.0173,176.853,237.6175,201.5201,216.7687,0.1123,,0.6031,0.6860,1.9590,,4.4445,,25.5941,,25.6366,,,,,,,,,,,11.8203,11.8202,0.1320,239.544,80.717,66.339,,,,,,,,,,,,
CalCOFI,2105SH,018,,2105_018d,08-May-2021 03:39:58,07-May-2021 19:39:58,32.41246,-119.96396,090.0 060.0,090.0,060.0,52.000,52.373,,11.8292,,11.8274,,11.8283,33.6756,,33.6768,33.7240,,33.7259,33.7014,4.9395,,5.2318,5.1628,4.0642,,4.2691,4.5715,4.8672,215.091,227.3549,231.8279,176.973,237.4274,201.6498,216.7389,0.1133,,0.6102,0.6917,1.9494,,4.4445,,25.5938,,25.6318,,,,,,,,,,,11.8226,11.8208,0.1345,239.599,80.655,66.382,,,,,,,,,,,,
CalCOFI,2105SH,018,,2105_018d,08-May-2021 03:40:00,07-May-2021 19:40:00,32.41245,-119.96396,090.0 060.0,090.0,060.0,53.000,53.381,,11.8206,,11.8206,,11.8206,33.6737,,33.6749,33.7175,,33.7194,33.6972,4.9400,,5.2324,5.1633,4.0047,,4.2075,4.5090,4.8362,215.113,227.3779,231.8515,174.380,237.4511,198.8456,215.3486,0.1072,,0.5667,0.6569,1.9302,,4.4445,,25.5940,,25.6280,,,,,,,,,,,11.8138,11.8138,0.1369,239.603,80.648,65.397,,,,,,,,,,,,
CalCOFI,2105SH,018,,2105_018d,08-May-2021 03:40:04,07-May-2021 19:40:04,32.41244,-119.96396,090.0 060.0,090.0,060.0,54.000,54.388,,11.8093,,11.8140,,11.8117,33.6727,,33.6739,33.7166,,33.7185,33.6962,4.9341,,5.2262,5.1572,3.9850,,4.1871,4.4884,4.8228,214.857,227.1103,231.5761,173.522,237.1747,197.9177,214.7469,0.1166,,0.6336,0.7106,1.9058,,4.4445,,25.5953,,25.6286,,,,,,,,,,,11.8024,11.8072,0.1394,239.501,80.532,65.066,,,,,,,,,,,,
CalCOFI,2105SH,018,,2105_018d,08-May-2021 03:40:05,07-May-2021 19:40:05,32.41243,-119.96396,090.0 060.0,090.0,060.0,55.000,55.395,,11.8042,,11.8054,,11.8048,33.6711,,33.6723,33.7117,,33.7136,33.6930,4.9367,,5.2289,5.1599,3.9895,,4.1917,4.4931,4.8265,214.972,227.2305,231.6998,173.721,237.2989,198.1329,214.9164,0.1175,,0.6400,0.7157,1.8999,,4.4445,,25.5951,,25.6264,,,,,,,,,,,11.7972,11.7984,0.1418,239.548,80.566,65.126,,,,,,,,,,,,